Location: Gökben Yaylas?
(36.8988°N, 29.6291°E)
Time: 07:54:41
(UTC+00:00)

Cosmos 2082 Rocket - Pass Details

Date: 15 May 2026
Orbit: 832 x 852 km, 71.0° (Epoch: 6 June)

Event Time Altitude Azimuth Distance (km) Brightness Sun altitude
Rises 18:53:26 0° 233° (SW) 3,407 5.5 -19.2°
Reaches altitude 10° 18:56:16 10° 246° (WSW) 2,476 4.9 -19.6°
Maximum altitude 19:00:58 26° 302° (WNW) 1,614 4.4 -20.3°
Drops below altitude 10° 19:05:42 10° 358° (N) 2,484 5.3 -20.9°
Sets 19:08:34 0° 11° (N) 3,421 5.9 -21.3°
